FW2360 Weather Reports


Display with metric or nautical units.
time (UTC)temp
F
wind
direction
speed
MPH
gust
MPH
rain 1hr
in
rain 24hr
in
rain mn
in
humidity
%
barometer
mb
20260503190035 62 107 2.0 8.0 0.00 0.00 0.00 30 1017.6
20260503184537 62 126 4.0 9.0 0.00 0.00 0.00 31 1017.8
20260503183035 62 290 2.0 8.0 0.00 0.00 0.00 34 1018.1
20260503181533 60 49 2.0 6.0 0.00 0.00 0.00 37 1018.1
20260503180041 60 0 0.0 8.0 0.00 0.00 0.00 35 1018.3
20260503174534 59 24 1.0 8.0 0.00 0.00 0.00 36 1018.6
20260503173056 59 313 1.0 13.0 0.00 0.00 0.00 33 1018.6
20260503171532 58 0 1.0 7.0 0.00 0.00 0.00 36 1018.7
20260503081532 41 0 0.0 2.0 0.00 0.00 0.00 76 1017.0
20260503071534 43 0 0.0 0.0 0.00 0.00 0.00 67 1016.3
20260503054536 48 0 0.0 0.0 0.00 0.00 0.00 59 1015.9
20260503053035 48 0 0.0 0.0 0.00 0.00 0.00 57 1015.8
20260503051528 49 0 0.0 3.0 0.00 0.00 0.00 55 1015.7
20260503050030 50 275 0.0 3.0 0.00 0.00 0.00 54 1015.7
20260503044530 50 0 0.0 2.0 0.00 0.00 0.00 52 1015.6
20260503043033 51 277 0.0 2.0 0.00 0.00 0.00 49 1015.6
20260503041532 52 277 0.0 2.0 0.00 0.00 0.00 49 1015.5
20260503040039 52 0 0.0 2.0 0.00 0.00 0.00 47 1015.5
20260503034543 52 0 0.0 0.0 0.00 0.00 0.00 47 1015.4
20260503033038 53 272 0.0 3.0 0.00 0.00 0.00 47 1015.4
20260503031538 53 265 0.0 3.0 0.00 0.00 0.00 45 1015.3
20260503030038 53 0 0.0 3.0 0.00 0.00 0.00 48 1015.3
20260503024529 53 0 0.0 0.0 0.00 0.00 0.00 50 1015.2
20260503023032 53 0 0.0 0.0 0.00 0.00 0.00 49 1015.4
20260503021540 53 0 0.0 0.0 0.00 0.00 0.00 51 1015.2
20260503020030 54 0 0.0 0.0 0.00 0.00 0.00 51 1015.3
20260503014532 54 0 0.0 1.0 0.00 0.00 0.00 48 1015.2
20260503013032 54 0 0.0 2.0 0.00 0.00 0.00 47 1015.2
20260503011529 54 0 0.0 2.0 0.00 0.00 0.00 46 1014.9
20260503010031 55 0 0.0 1.0 0.00 0.00 0.00 51 1014.7
20260503004555 55 246 0.0 1.0 0.00 0.00 0.00 47 1014.4
20260503003030 55 0 0.0 0.0 0.00 0.00 0.00 49 1014.3
20260503001532 55 0 0.0 0.0 0.00 0.00 0.00 47 1014.1
20260503000033 56 0 0.0 1.0 0.00 0.00 0.00 47 1013.8
20260502234531 56 0 0.0 2.0 0.00 0.00 0.00 47 1013.7
20260502233031 56 0 0.0 4.0 0.00 0.00 0.00 49 1013.5
20260502231532 57 255 0.0 2.0 0.00 0.00 0.00 47 1013.3
20260502230030 57 0 0.0 2.0 0.00 0.00 0.00 50 1013.2
20260502224532 57 0 0.0 2.0 0.00 0.00 0.00 50 1013.2
20260502223035 58 0 0.0 0.0 0.00 0.00 0.00 48 1012.9
20260502221529 58 0 0.0 1.0 0.00 0.00 0.00 52 1012.8
20260502220036 59 0 0.0 1.0 0.00 0.00 0.00 48 1012.7
20260502214535 59 0 0.0 2.0 0.00 0.00 0.00 47 1012.7
20260502213032 59 49 0.0 3.0 0.00 0.00 0.00 49 1012.5
20260502211543 60 49 0.0 3.0 0.00 0.00 0.00 46 1012.5
20260502210031 60 253 0.0 2.0 0.00 0.00 0.00 42 1012.3
20260502204531 60 69 1.0 3.0 0.00 0.00 0.00 43 1012.5
20260502203031 61 38 0.0 4.0 0.00 0.00 0.00 39 1012.5
20260502201532 60 34 1.0 2.0 0.00 0.00 0.00 46 1012.8
20260502200032 60 47 1.0 3.0 0.00 0.00 0.00 43 1012.7
20260502194532 60 0 1.0 4.0 0.00 0.00 0.00 39 1013.0
20260502193034 61 24 0.0 4.0 0.00 0.00 0.00 43 1013.0
20260502191531 61 212 1.0 4.0 0.00 0.00 0.00 40 1013.2